Location: Newark
(13.7497°N, 100.4964°E)
Time: 08:15:51
(UTC+00:00)

ISS - Visible Passes

Search period start: 17 October 2019 00:00
Search period end: 27 October 2019 00:00
Orbit: 411 x 421 km, 51.6° (Epoch: 17 October)

Date Brightness Start Highest point End Pass type
(mag) Time Alt. Az. Time Alt. Az. Time Alt. Az.
19 Oct -1.9 22:31:02 10° SSW 22:34:07 34° SE 22:37:11 10° ENE visible
20 Oct -0.7 21:43:35 10° SSE 21:45:38 15° SE 21:47:41 10° E visible
21 Oct -3.4 22:30:23 10° SW 22:33:35 42° NW 22:36:47 10° NNE visible
22 Oct -3.7 21:45:07 74° ESE 21:45:07 74° ESE 21:48:24 10° NE visible
23 Oct -1.5 22:33:05 11° NW 22:33:13 11° NW 22:33:56 10° NW visible
